CZ-4 DEB, 35329

Orbit data source: Space-Track

CZ-4 DEB, 35329 is space debris in SSO originally from a launch on Thu, 14 Oct 1999 UTC launched from the Taiyaun Space Center, China (TSC). Debris objects in space refer to the collection of defunct objects orbiting the Earth. Examples of debris include non-operational satellites, rocket bodies, and fragments generated from explosions, collisions, or faulty payload assembly.

Loading next visibility...
Identifier
35329, 1999-057SH
Orbit
SSO
Country
Flag of CNCN / PRC
Related business
Manufacturer
Unknown
Mission
Spacecraft
Bus & Motor
Unknown
Mass
Unknown
Launch date (UTC)
1999-10-14 (26 years ago)
Launch vehicle
Unknown
Launch site
Taiyaun Space Center, China (TSC)
Object type
Payload
Rocket body
Debris
Shape & HBR
Unknown shape, 0.1 m
Radar Cross Section
Small (<0.1 m²)

Expand to show TLE details & history
Last TLE update: 17 hours ago

TLE from 17 hours ago
0 CZ-4 DEB
1 35329U 99057SH  25300.22468932  .00000302  00000-0  12504-3 0  9998
2 35329  98.3746  68.8559 0132972  69.7610  46.8974 14.28388109212451
Epoch: 2025-10-27T05:23Z
TLE epoch observation values (Epoch: 2025-10-27T05:23:33.157Z)
Latitude
61.17452°
Longitude
147.56847°
Altitude
743.031 km
Speed
7.523 km/s
True Right ascension
17h 37m 08s
True Declination
61° 01' 43"
Sunlit
Object was in daylight at epoch
Visualization orbit readout
Latitude
Unknown
Longitude
Unknown
Altitude
Unknown
Speed
Unknown
Apparent Right ascension
Unknown
Apparent Declination
Unknown
Sunlit
N/A
Visualization observer readout
Local Sidereal Time
17:40:41
Azimuth
Unknown
Elevation
Unknown
Doppler factor
Unknown
Orbital elements
Apogee altitude
889.627 km
Perigee altitude
698.882 km
Semi-major axis
7,172.392 km
Eccentricity
0.0133
Inclination
98.3746°
RAAN
68.8559°
Arg. of periapsis
69.761°
True anomaly
48.02264°
Mean anomaly
46.8974°
Eccentric anomaly
47.45874°
Mean motion
3.57312 °/min
Orbital period
100.75 mins
BSTAR
0.00012504
Loading maneuver chart data...
Computing Atmospheric mass density...
Loading historical data...
Loading historical data...
Loading historical data...
Loading historical data...
Loading historical data...
Loading historical data...
Loading historical data...

Documentation

Showing up to 5 results
|